Location: Darmstadt
(49.8706°N, 8.6494°E)
Time: 05:17:46
(UTC+01:00)

H-2A R/B - Pass Details

Date: 31 October 2020
Orbit: 733 x 837 km, 98.2° (Epoch: 03 December)

Event Time Altitude Azimuth Distance (km) Brightness Sun altitude
Rises 17:55:59 0° 125° (SE) 3,375 4.9 -8.9°
Reaches altitude 10° 17:58:42 10° 112° (ESE) 2,450 4.1 -9.3°
Maximum altitude 18:03:02 25° 59° (ENE) 1,643 3.2 -10.0°
Drops below altitude 10° 18:07:22 10° 7° (N) 2,458 4.5 -10.7°
Sets 18:10:05 0° 354° (N) 3,388 5.3 -11.1°
